Timeline UpdatesTrip UpdatesNews PostsPvt PostsTravel TipsAdmin PostsConv PostsFollowed PostsChat RequestsBlog PostsPNR Posts

Disclaimer
Search
 
 
Mon Jul 28, 2014 13:50:20 ISTHomeTrainsΣChainsAtlasPNRForumGalleryNewsFAQTripsMembersLoginFeedback
No Recent News for this Train
Other Trains in the News **new
Latest...
.
Sat Feb 02, 2013 (04:10PM)
⇐ Return Journey: Train# 51187

51188/Katni - Bhusaval Passenger (UnReserved)

Oct 05 2013 (11:32PM)
Change Departure Station:
Change Arrival Station:
Post a Train Travel TipPost a Train Travel Tip **new
Post a Comment/Question/Picture/VideoPost a Comment/Question/Picture/Video
Pantry/Catering
✕ NO Pantry Car
✕ NO Catering
RSA - Rake Sharing
Rake/Coach Composition
Loco
KTE-ET: KTE/ET WDM-3A ET-BSL: BSL/ET WAP-4
News    PNR    Forum    Time-Table    Availability    Fare Chart    Map    Arr/Dep History    Trips    Gallery    ΣChains    X/O    Timeline    
Travel Time: 7h 0m    23 halts    Distance: 199 km    Avg Speed: 28 km/hr
Type: Passenger
Zone: CR/Central
Departs @ 10:00 (Avg 4h 0m late)
Platform# 1
SMTWTFS
Khirkiya/KKN 
Arrives @ 17:00 (Avg 3h 45m late)
Platform# 6
SMTWTFS
Bhusaval Junction/BSL 

23 halts. 24 intermediate Stations between Khirkiya and Bhusaval Junction

Show ALL intermediate Stations  Show Old Time-Table

#CodeStation NameX/OArrivesAvgDepartsAvgHaltPFDay#KmSpeedElevZoneAddress
1KTEKatni Junction (6)  -22:20+5051-443.231387mWCRKatni, Madhya Pradesh
2MDRRMadhavnagar Road (2)X  22:30+1:0322:31+1:031m--1-438.048398mWCRMadhavnagar, Madhya Pradesh
3NWRNiwar (2)X  22:41+1:4922:42+1:591m--1-430.052412mWCRPipraundh, Madhya Pradesh
4SNRRSansarpur (2)  22:51+1:2922:52+1:291m--1-422.259436mWCRNational Highway 7, Madhya Pradesh
5SBDSleemanabad Road (2)X  22:59+1:4323:00+1:471m--1-415.357434mWCRSleemanabad, Madhya Pradesh
6DDCEDundi (2)  23:10+1:4623:11+1:521m--1-405.860415mWCRDundi, Madhya Pradesh
7SHRSihora Road (2)X  23:26+1:3323:28+1:342m--1-390.961388mWCRJabalpur, Madhya Pradesh
8GSPRGosalpur (2)X  23:39+2:0923:40+2:101m--1-379.857396mWCRJabalpur, Madhya Pradesh
9DOEDeori (2)  23:51+2:0923:52+2:101m--1-369.348392mWCRJabalpur, Madhya Pradesh
10ADTLAdhartal (2)X  00:03+1:5800:04+2:021m--2-360.530393mWCRJabalpur, Madhya Pradesh
11JBPJabalpur Junction (4)X  00:20+1:0500:30+1:1510m12-352.553416mWCRJabalpur, Madhya Pradesh
12MMLMadan Mahal (3)  00:34+2:3800:36+2:382m12-349.056428mWCRJabalpur, Madhya Pradesh
13BRGTBheraghat (2)X  00:50+2:3800:51+2:541m--2-335.961389mWCRBheraghat, Madhya Pradesh
14BHTNBhitoni (2)X  01:04+2:5301:05+2:581m--2-322.858377mWCRJabalpur, Madhya Pradesh
15BMRBikrampur (2)  01:17+3:0001:18+3:031m--2-311.265353mWCRBikrampur Dist Narsingpur., Madhya Pradesh
16SRIDShridham (3)XO  01:29+2:4001:31+2:522m32-299.354373mWCRShridham, Madhya Pradesh
17KKBKarak Bel (2)  01:48+3:0901:49+3:151m--2-284.029375mWCRKarak Bel, Madhya Pradesh
18BELDBelkhera (2)  01:58+3:0701:59+3:121m--2-279.633367mWCRState Highway 22, Madhya Pradesh
19GPCGhatpindrai (2)  02:09+3:1502:10+3:211m--2-274.135366mWCRGhatpindra, Madhya Pradesh
20NUNarsinghpur (2)X  02:20+3:2902:22+3:332m22-268.370365mWCRNarsimhapur, Madhya Pradesh
21KYKareli (2)X  02:36+2:5902:37+3:051m22-251.945361mWCRKareli, Madhya Pradesh
22KFYKarapgaon (2)XO  02:48+2:4602:49+2:461m--2-243.645363mWCRNational Highway 26, Madhya Pradesh
23BNEBohani (2)X  02:58+3:2502:59+3:291m--2-236.978361mWCRNarsinghpur, Madhya Pradesh
24GARGadarwara (2)X  03:09+3:0803:10+3:131m22-223.956352mWCRNarsinghpur, Madhya Pradesh
25SCKRSalichauka Road (2)X  03:25+3:3803:26+3:561m--2-210.061355mWCRGadarwara, Madhya Pradesh
26JHTJunehta (2)X  03:36+2:5803:37+2:581m--2-199.955353mWCRState Highway 22, Madhya Pradesh
27BKHBankhedi (2)XO  03:44+3:3103:46+3:342m--2-193.567351mWCRBankheri, Madhya Pradesh
28PPIPipariya (3)X  04:03+3:5404:05+4:002m32-174.640338mWCRPiparia, Madhya Pradesh
29SXFSobhapur (2)X  04:18+3:0204:19+3:021m--2-165.945338mWCRState Highway 22, Madhya Pradesh
30SGPSohagpur (2)X  04:31+3:5204:33+3:532m--2-156.943340mWCRSohagpur, Madhya Pradesh
31GMDGuramkhedi (2)  04:47+3:4804:48+3:511m--2-146.849337mWCRGuramkhedi, Madhya Pradesh
32BGTABagratawa (2)  05:04+3:4705:05+3:541m--2-133.829338mWCRBagra Tawa, Madhya Pradesh
33SQLSontalai (2)X  05:19+3:5105:20+3:511m--2-126.927329mWCRItarsi, Madhya Pradesh
34GROGurra (2)X  05:40+3:3105:41+3:451m--2-117.916327mWCRItarsi, Madhya Pradesh
35ETItarsi Junction (7)  06:20+4:1006:45+4:1225m--2-107.357329mWCRItarsi 461111, Madhya Pradesh
36DRADularia (2)  06:58+3:5206:59+3:541m--2-95.142318mWCRItarsi, Madhya Pradesh
37KTZKhutwansa (2)X  07:07+2:5507:08+2:551m--2-89.549325mWCRSH 15, Madhya Pradesh
38DKIDharamkundi (2)O  07:17+3:4907:18+3:501m--2-82.131314mWCRSH 15, Madhya Pradesh
39BPFBanapura (2)  07:34+3:4307:35+3:541m--2-73.949314mWCRBanapura, Madhya Pradesh
40BIFBhaironpur (2)O  07:44+3:5307:45+3:541m--2-66.649322mWCRSH 15, Madhya Pradesh
41PGLPagdhal (2)X  07:54+3:5307:55+4:051m--2-59.341317mWCRPagdhal, Madhya Pradesh
42CGOChhidgaon (2)X  08:01+3:1108:02+3:111m--2-55.126309mWCRHarda, Madhya Pradesh
43TBNTimarni (2)  08:24+4:0308:25+4:041m--2-45.747308mWCRTimarni, Madhya Pradesh
44CRKCharkhera (2)O  08:34+3:5408:35+3:571m--2-38.623298mWCRBarkalan, Madhya Pradesh
45HDHarda (3)X  08:53+4:3408:55+4:352m--2-31.564289mWCRHarda, Madhya Pradesh
46PALPalasner (2)  09:02+3:4909:03+3:501m--2-24.139296mWCRHarda, Madhya Pradesh
47MUOMasangaon (2)XO  09:12+3:4709:13+3:481m--2-18.212303mWCRSH 15, Madhya Pradesh
48BRIBhiringi (2)  09:39+3:3009:40+3:361m--2-13.0100294mWCRSH 15, Madhya Pradesh
49KROKurawan (2)X  09:44+2:5509:45+2:551m--2-6.429297mWCRSH 15, Madhya Pradesh
50KKN»Khirkiya (2)»O  09:58+3:5110:00+4:002m120.039281mWCRSH 15, Madhya Pradesh
51DRHIDagarhkeri (2)XO  10:17+3:3610:18+3:391m--210.920274mWCRState Highway 15, Madhya Pradesh
52BRUDBarud (2)X  10:47+3:2110:48+3:261m--220.576273mWCRKhandwa, Madhya Pradesh
53CAERChhanera (2)XO  10:56+3:3610:58+3:402m--230.721283mWCRChhanera, Madhya Pradesh
54CKKDCharkheda Khurd (2)  11:17+3:2311:18+3:241m--237.523274mWCRKhandwa, Madhya Pradesh
55SGBJSurgaon Banjari (2)  11:47+3:0611:48+3:181m--248.671298mWCRKhandwa, Madhya Pradesh
56TLVTalvadiya (2)O  11:58+3:2112:00+3:262m--260.456308mWCRKhandwa, Madhya Pradesh
57MTAMathela (2)XO  12:09+3:2512:10+3:251m--268.76322mWCRKhandwa, Madhya Pradesh
58KNWKhandwa Junction (5)  13:20+3:3813:30+3:3710m--276.144310mCRKhandwa, Madhya Pradesh
59BRGJBargaon Gujar (2)  13:37+2:3213:38+2:321m--281.260316mCRKhandwa, Madhya Pradesh
60BMABagmar (2)X  13:44+2:3313:45+2:361m--287.266335mCRState Highway 27, Madhya Pradesh
61KDKKohdad (2)X  13:49+2:5413:50+2:541m--291.657344mCRState Highway 15, Madhya Pradesh
62DGNDongargaon (2)  13:58+2:5413:59+2:561m--299.258373mCRBorgaon, Madhya Pradesh
63SXASagphata (2)O  14:07+2:5714:08+2:571m--2106.951350mCRKhandwa, Madhya Pradesh
64MWAMandwa (2)X  14:15+2:5714:16+3:001m--2112.944317mCRState Highway 27, Madhya Pradesh
65NPNRNepanagar (2)  14:24+3:3714:26+3:372m--2118.753289mCRState Highway 27, Madhya Pradesh
66CDIChandni (2)  14:34+3:0314:35+3:031m--2125.877276mCRNepanagar Rd, Madhya Pradesh
67AGQAsirgarh Road (2)X  14:43+3:0414:44+3:061m--2136.067259mCRState Highway 27, Madhya Pradesh
68BAUBurhanpur (2)X  14:52+4:2314:55+4:233m12145.062269mCRBurhanpur, Madhya Pradesh
69WGAWaghodaX  15:05+3:0915:06+3:141m--2155.260259mCRChorwad, Maharashtra
70RVRaver (2)X  15:16+3:1315:18+3:162m--2165.268242mCRJalgaon, Maharashtra
71NBNimbhoraX  15:27+3:3615:28+3:411m--2175.358229mCRJalgaon, Maharashtra
72SAVSavda (2)X  15:37+3:2215:38+3:241m--2184.058220mCRSavda, Maharashtra
73DSKDuskheda (2)X  15:47+3:2415:48+3:361m--2192.76213mCRDuskheda Station, Maharashtra
74BSL•Bhusaval Junction (8)•  17:00+3:45-62199.5-208mCRBhusaval 425201, Maharashtra
Scroll to Top
Scroll to Bottom